Location: Fond Mahaut
(18.0707°N, 63.0465°W)
Time: 22:37:44
(UTC+00:00)

SL-16 R/B - Pass Details

Date: 08 December 2019
Orbit: 840 x 849 km, 71.0° (Epoch: 18 January)

Event Time Altitude Azimuth Distance (km) Brightness Sun altitude
Rises 22:46:37 0° 218° (SW) 3,388 6.3 -16.3°
Reaches altitude 10° 22:49:17 10° 227° (SW) 2,456 5.7 -16.9°
Maximum altitude 22:54:17 33° 290° (WNW) 1,396 3.8 -18.1°
Drops below altitude 10° 22:59:19 10° 353° (N) 2,465 4.5 -19.2°
Sets 23:02:01 0° 3° (N) 3,403 5.1 -19.8°
